Location: Newark
(45.8667°N, 9.7333°E)
Time: 05:27:32
(UTC+00:00)

Transit 4A - Pass Details

Date: 30 January 2020
Orbit: 872 x 973 km, 66.8° (Epoch: 17 February)

Event Time Altitude Azimuth Distance (km) Brightness Sun altitude
Rises 14:04:06 0° 322° (NW) 3,470 10.7 18.0°
Reaches altitude 10° 14:06:39 10° 317° (NW) 2,529 10.2 17.7°
Maximum altitude 14:12:11 47° 246° (WSW) 1,156 9.5 17.1°
Drops below altitude 10° 14:17:46 10° 174° (S) 2,542 11.0 16.5°
Sets 14:20:21 0° 168° (SSE) 3,489 11.5 16.2°
